Showing default

ERS 6, 608

Orbit data source: Space-Track

ERS 6, 608 is a payload satellite owned by USAF SSD (US) in LEO that was launched on Thu, 09 May 1963 UTC via an ATLAS AGENA B launch vehicle from the Air Force Western Test Range (AFWTR). Payload-class satellites include a variety of spacecraft equipped with specific instruments for various scientific and technological missions. These include communications satellites like Starlink; space stations such as the ISS; scientific satellites like the Hubble; Earth observation satellites from companies like Planet Labs, Umbra, and HawkEye 360; GPS; miniature CubeSats for education and research; and military/defense satellites.

Loading next visibility...
Identifier
608, 1963-014C
Orbit
LEO
Country
Flag of USUS
Related business
Manufacturer
TRW
Mission
Spacecraft
Bus & Motor
TRS, Unknown motor
Mass
1 kg wet, 1 kg dry
Launch date (UTC)
1963-05-09 (63 years ago)
Launch vehicle
ATLAS AGENA B
Launch site
Air Force Western Test Range (AFWTR)
Object type
Payload
Rocket body
Debris
Shape & HBR
Unknown
Radar Cross Section
Medium (>0.1 m² and <1 m²)

Expand to show TLE details & history
Last TLE update: 2 days ago

TLE from 2 days ago
0 ERS 6
1 00608U 63014C   26174.00570077 -.00000004  00000-0 -30636-2 0  9990
2 00608  87.3499 192.8242 0018944 350.1139   9.9341  8.65280700994006
Epoch: 2026-06-23T00:08Z
TLE epoch observation values (Epoch: 2026-06-23T00:08:12.546Z)
Latitude
0.00001°
Longitude
-80.41155°
Altitude
3,627.565 km
Speed
6.318 km/s
True Right ascension
12h 51m 17s
True Declination
0° 00' 00"
Sunlit
Object was in daylight at epoch
Visualization orbit readout
Latitude
Unknown
Longitude
Unknown
Altitude
Unknown
Speed
Unknown
Apparent Right ascension
Unknown
Apparent Declination
Unknown
Sunlit
N/A
Visualization observer readout
Local Sidereal Time
02:35:49
Azimuth
Unknown
Elevation
Unknown
Doppler factor
Unknown
Orbital elements
Apogee altitude
3,660.886 km
Perigee altitude
3,622.922 km
Semi-major axis
10,020.041 km
Eccentricity
0.00189
Inclination
87.3499°
RAAN
192.8242°
Arg. of periapsis
350.1139°
True anomaly
9.97164°
Mean anomaly
9.9341°
Eccentric anomaly
9.95286°
Mean motion
2.16391 °/min
Orbital period
166.37 mins
BSTAR
-0.0030636
Loading maneuver chart data...
Computing Atmospheric mass density...

Documentation

Showing up to 5 results
|